Showing default

KUIPER-00590, 69276

Orbit data source: Space-Track

KUIPER-00590, 69276 is a payload satellite owned by Kuiper Systems (US) in LEO that was launched on Fri, 29 May 2026 UTC via an ATLAS V 551 launch vehicle from the Air Force Eastern Test Range (AFETR). Payload-class satellites include a variety of spacecraft equipped with specific instruments for various scientific and technological missions. These include communications satellites like Starlink; space stations such as the ISS; scientific satellites like the Hubble; Earth observation satellites from companies like Planet Labs, Umbra, and HawkEye 360; GPS; miniature CubeSats for education and research; and military/defense satellites.

Loading next visibility...
Identifier
69276, 2026-118K
Orbit
LEO
Country
Flag of USUS
Related business
Manufacturer
Kuiper Systems
Mission
Operational spacecraft
Bus & Motor
KUIPER, Unknown motor
Mass
~490 kg wet, ~490 kg dry
Launch date (UTC)
2026-05-29 (3 weeks ago)
Launch vehicle
ATLAS V 551
Launch site
Air Force Eastern Test Range (AFETR)
Object type
Payload
Rocket body
Debris
Shape & HBR
Unknown
Radar Cross Section
Large (>1 m²)

Expand to show TLE details & history
Last TLE update: 21 hours ago

TLE from 21 hours ago
0 KUIPER-00590
1 69276U 26118K   26170.98416114  .00019553  00000-0  52417-3 0  9993
2 69276  51.8693  39.6781 0004035 170.0397 190.0671 15.37983586  4415
Epoch: 2026-06-19T23:37Z
TLE epoch observation values (Epoch: 2026-06-19T23:37:11.522Z)
Latitude
0.00001°
Longitude
137.1748°
Altitude
455.549 km
Speed
7.639 km/s
True Right ascension
02h 38m 42s
True Declination
0° 00' 00"
Sunlit
Object was in daylight at epoch
Visualization orbit readout
Latitude
Unknown
Longitude
Unknown
Altitude
Unknown
Speed
Unknown
Apparent Right ascension
Unknown
Apparent Declination
Unknown
Sunlit
N/A
Visualization observer readout
Local Sidereal Time
07:13:17
Azimuth
Unknown
Elevation
Unknown
Doppler factor
Unknown
Orbital elements
Apogee altitude
455.297 km
Perigee altitude
449.784 km
Semi-major axis
6,830.677 km
Eccentricity
0.0004
Inclination
51.8693°
RAAN
39.6781°
Arg. of periapsis
170.0397°
True anomaly
190.05902°
Mean anomaly
190.0671°
Eccentric anomaly
190.06306°
Mean motion
3.84457 °/min
Orbital period
93.64 mins
BSTAR
0.00052417
Loading maneuver chart data...
Computing Atmospheric mass density...
Loading historical data...
Loading historical data...
Loading historical data...
Loading historical data...
Loading historical data...
Loading historical data...
Loading historical data...

Documentation

Showing up to 5 results
|